station,date_time,longitude_east,latitude_north,depth,sw_sal,sw_sal_result_value_qualifier,sea_water_temperature,sea_water_temperature_result_value_qualifier,sea_water_pressure,sea_water_pressure_result_value_qualifier,KD_PAR,KD_PAR_result_value_qualifier
CH5-2,2017-02-06T12:00:00Z,-79.54,54.26,0.80,19.59,,-0.98,,, NC,, NC
CH5-2,2017-02-06T12:10:00Z,-79.54,54.26,0.80,19.52,,-0.98,,, NC,, NC
CH5-2,2017-02-06T12:20:00Z,-79.54,54.26,0.80,19.48,,-0.98,,, NC,, NC
CH5-2,2017-02-06T12:30:00Z,-79.54,54.26,0.80,19.55,,-0.98,,, NC,, NC
CH5-2,2017-02-06T12:40:00Z,-79.54,54.26,0.80,19.58,,-0.98,,, NC,, NC
CH5-2,2017-02-06T12:50:00Z,-79.54,54.26,0.80,19.56,,-0.98,,, NC,, NC
CH5-2,2017-02-06T13:00:00Z,-79.54,54.26,0.80,19.57,,-0.98,,, NC,, NC
CH5-2,2017-02-06T13:10:00Z,-79.54,54.26,0.80,19.59,,-0.99,,, NC,, NC
CH5-2,2017-02-06T13:20:00Z,-79.54,54.26,0.80,19.53,,-0.98,,, NC,, NC
CH5-2,2017-02-06T13:30:00Z,-79.54,54.26,0.80,19.38,,-0.98,,, NC,, NC
CH5-2,2017-02-06T13:40:00Z,-79.54,54.26,0.80,19.34,,-0.98,,, NC,, NC
CH5-2,2017-02-06T13:50:00Z,-79.54,54.26,0.80,19.34,,-0.98,,, NC,, NC
CH5-2,2017-02-06T14:00:00Z,-79.54,54.26,0.80,19.32,,-0.98,,, NC,, NC
CH5-2,2017-02-06T14:10:00Z,-79.54,54.26,0.80,19.30,,-0.98,,, NC,, NC
CH5-2,2017-02-06T14:20:00Z,-79.54,54.26,0.80,19.27,,-0.97,,, NC,, NC
CH5-2,2017-02-06T14:30:00Z,-79.54,54.26,0.80,19.26,,-0.97,,, NC,, NC
CH5-2,2017-02-06T14:40:00Z,-79.54,54.26,0.80,19.24,,-0.97,,, NC,, NC
CH5-2,2017-02-06T14:50:00Z,-79.54,54.26,0.80,19.23,,-0.97,,, NC,, NC
CH5-2,2017-02-06T15:00:00Z,-79.54,54.26,0.80,19.22,,-0.97,,, NC,, NC
CH5-2,2017-02-06T15:10:00Z,-79.54,54.26,0.80,19.22,,-0.97,,, NC,, NC
CH5-2,2017-02-06T15:20:00Z,-79.54,54.26,0.80,19.21,,-0.97,,, NC,, NC
CH5-2,2017-02-06T15:30:00Z,-79.54,54.26,0.80,19.26,,-0.97,,, NC,, NC
CH5-2,2017-02-06T15:40:00Z,-79.54,54.26,0.80,19.27,,-0.97,,, NC,, NC
CH5-2,2017-02-06T15:50:00Z,-79.54,54.26,0.80,19.31,,-0.97,,, NC,, NC
CH5-2,2017-02-06T16:00:00Z,-79.54,54.26,0.80,19.30,,-0.98,,, NC,, NC
CH5-2,2017-02-06T16:10:00Z,-79.54,54.26,0.80,19.31,,-0.98,,, NC,, NC
CH5-2,2017-02-06T16:20:00Z,-79.54,54.26,0.80,19.27,,-0.98,,, NC,, NC
CH5-2,2017-02-06T16:30:00Z,-79.54,54.26,0.80,19.24,,-0.97,,, NC,, NC
CH5-2,2017-02-06T16:40:00Z,-79.54,54.26,0.80,19.25,,-0.97,,, NC,, NC
CH5-2,2017-02-06T16:50:00Z,-79.54,54.26,0.80,19.27,,-0.97,,, NC,, NC
CH5-2,2017-02-06T17:00:00Z,-79.54,54.26,0.80,19.30,,-0.97,,, NC,, NC
CH5-2,2017-02-06T17:10:00Z,-79.54,54.26,0.80,19.32,,-0.97,,, NC,, NC
CH5-2,2017-02-06T17:20:00Z,-79.54,54.26,0.80,19.33,,-0.97,,, NC,, NC
CH5-2,2017-02-06T17:30:00Z,-79.54,54.26,0.80,19.34,,-0.97,,, NC,, NC
CH5-2,2017-02-06T17:40:00Z,-79.54,54.26,0.80,19.57,,-0.97,,, NC,, NC
CH5-2,2017-02-06T17:50:00Z,-79.54,54.26,0.80,20.02,,-0.98,,, NC,, NC
CH5-2,2017-02-06T18:00:00Z,-79.54,54.26,0.80,20.07,,-0.98,,, NC,, NC
CH5-2,2017-02-06T18:10:00Z,-79.54,54.26,0.80,20.06,,-0.98,,, NC,, NC
CH5-2,2017-02-06T18:20:00Z,-79.54,54.26,0.80,19.79,,-0.97,,, NC,, NC
CH5-2,2017-02-06T18:30:00Z,-79.54,54.26,0.80,20.05,,-0.98,,, NC,, NC
CH5-2,2017-02-06T18:40:00Z,-79.54,54.26,0.80,20.14,,-0.98,,, NC,, NC
CH5-2,2017-02-06T18:50:00Z,-79.54,54.26,0.80,20.42,,-1.00,,, NC,, NC
CH5-2,2017-02-06T19:00:00Z,-79.54,54.26,0.80,20.44,,-1.01,,, NC,, NC
CH5-2,2017-02-06T19:10:00Z,-79.54,54.26,0.80,20.36,,-1.01,,, NC,, NC
CH5-2,2017-02-06T19:20:00Z,-79.54,54.26,0.80,20.31,,-1.01,,, NC,, NC
CH5-2,2017-02-06T19:30:00Z,-79.54,54.26,0.80,20.40,,-1.02,,, NC,, NC
CH5-2,2017-02-06T19:40:00Z,-79.54,54.26,0.80,20.31,,-1.02,,, NC,, NC
CH5-2,2017-02-06T19:50:00Z,-79.54,54.26,0.80,20.11,,-1.01,,, NC,, NC
CH5-2,2017-02-06T20:00:00Z,-79.54,54.26,0.80,20.30,,-1.02,,, NC,, NC
CH5-2,2017-02-06T20:10:00Z,-79.54,54.26,0.80,20.13,,-1.01,,, NC,, NC
CH5-2,2017-02-06T20:20:00Z,-79.54,54.26,0.80,20.13,,-1.01,,, NC,, NC
CH5-2,2017-02-06T20:30:00Z,-79.54,54.26,0.80,20.18,,-1.01,,, NC,, NC
CH5-2,2017-02-06T20:40:00Z,-79.54,54.26,0.80,19.95,,-1.00,,, NC,, NC
CH5-2,2017-02-06T20:50:00Z,-79.54,54.26,0.80,19.83,,-0.99,,, NC,, NC
CH5-2,2017-02-06T21:00:00Z,-79.54,54.26,0.80,19.55,,-0.99,,, NC,, NC
CH5-2,2017-02-06T21:10:00Z,-79.54,54.26,0.80,19.78,,-0.98,,, NC,, NC
CH5-2,2017-02-06T21:20:00Z,-79.54,54.26,0.80,19.67,,-0.99,,, NC,, NC
CH5-2,2017-02-06T21:30:00Z,-79.54,54.26,0.80,19.85,,-0.99,,, NC,, NC
CH5-2,2017-02-06T21:40:00Z,-79.54,54.26,0.80,19.83,,-0.99,,, NC,, NC
CH5-2,2017-02-06T21:50:00Z,-79.54,54.26,0.80,19.76,,-0.99,,, NC,, NC
CH5-2,2017-02-06T22:00:00Z,-79.54,54.26,0.80,19.73,,-0.99,,, NC,, NC
CH5-2,2017-02-06T22:10:00Z,-79.54,54.26,0.80,19.86,,-0.99,,, NC,, NC
CH5-2,2017-02-06T22:20:00Z,-79.54,54.26,0.80,19.92,,-0.99,,, NC,, NC
CH5-2,2017-02-06T22:30:00Z,-79.54,54.26,0.80,20.00,,-0.99,,, NC,, NC
CH5-2,2017-02-06T22:40:00Z,-79.54,54.26,0.80,19.99,,-0.99,,, NC,, NC
CH5-2,2017-02-06T22:50:00Z,-79.54,54.26,0.80,19.91,,-0.99,,, NC,, NC
CH5-2,2017-02-06T23:00:00Z,-79.54,54.26,0.80,19.87,,-0.99,,, NC,, NC
CH5-2,2017-02-06T23:10:00Z,-79.54,54.26,0.80,19.89,,-0.99,,, NC,, NC
CH5-2,2017-02-06T23:20:00Z,-79.54,54.26,0.80,19.77,,-0.99,,, NC,, NC
CH5-2,2017-02-06T23:30:00Z,-79.54,54.26,0.80,19.72,,-0.99,,, NC,, NC
CH5-2,2017-02-06T23:40:00Z,-79.54,54.26,0.80,19.69,,-0.99,,, NC,, NC
CH5-2,2017-02-06T23:50:00Z,-79.54,54.26,0.80,19.66,,-0.98,,, NC,, NC
CH5-2,2017-02-07T00:00:00Z,-79.54,54.26,0.80,19.61,,-0.99,,, NC,, NC
CH5-2,2017-02-07T00:10:00Z,-79.54,54.26,0.80,19.56,,-0.99,,, NC,, NC
CH5-2,2017-02-07T00:20:00Z,-79.54,54.26,0.80,19.52,,-0.98,,, NC,, NC
CH5-2,2017-02-07T00:30:00Z,-79.54,54.26,0.80,19.51,,-0.98,,, NC,, NC
CH5-2,2017-02-07T00:40:00Z,-79.54,54.26,0.80,19.50,,-0.98,,, NC,, NC
CH5-2,2017-02-07T00:50:00Z,-79.54,54.26,0.80,19.48,,-0.98,,, NC,, NC
CH5-2,2017-02-07T01:00:00Z,-79.54,54.26,0.80,19.45,,-0.98,,, NC,, NC
CH5-2,2017-02-07T01:10:00Z,-79.54,54.26,0.80,19.47,,-0.98,,, NC,, NC
CH5-2,2017-02-07T01:20:00Z,-79.54,54.26,0.80,19.47,,-0.98,,, NC,, NC
CH5-2,2017-02-07T01:30:00Z,-79.54,54.26,0.80,19.47,,-0.98,,, NC,, NC
CH5-2,2017-02-07T01:40:00Z,-79.54,54.26,0.80,19.43,,-0.98,,, NC,, NC
CH5-2,2017-02-07T01:50:00Z,-79.54,54.26,0.80,19.37,,-0.97,,, NC,, NC
CH5-2,2017-02-07T02:00:00Z,-79.54,54.26,0.80,19.32,,-0.97,,, NC,, NC
CH5-2,2017-02-07T02:10:00Z,-79.54,54.26,0.80,19.32,,-0.97,,, NC,, NC
CH5-2,2017-02-07T02:20:00Z,-79.54,54.26,0.80,19.31,,-0.97,,, NC,, NC
CH5-2,2017-02-07T02:30:00Z,-79.54,54.26,0.80,19.30,,-0.97,,, NC,, NC
CH5-2,2017-02-07T02:40:00Z,-79.54,54.26,0.80,19.30,,-0.97,,, NC,, NC
CH5-2,2017-02-07T02:50:00Z,-79.54,54.26,0.80,19.27,,-0.97,,, NC,, NC
CH5-2,2017-02-07T03:00:00Z,-79.54,54.26,0.80,19.23,,-0.97,,, NC,, NC
CH5-2,2017-02-07T03:10:00Z,-79.54,54.26,0.80,19.21,,-0.97,,, NC,, NC
CH5-2,2017-02-07T03:20:00Z,-79.54,54.26,0.80,19.20,,-0.97,,, NC,, NC
CH5-2,2017-02-07T03:30:00Z,-79.54,54.26,0.80,19.24,,-0.97,,, NC,, NC
CH5-2,2017-02-07T03:40:00Z,-79.54,54.26,0.80,19.28,,-0.97,,, NC,, NC
CH5-2,2017-02-07T03:50:00Z,-79.54,54.26,0.80,19.20,,-0.97,,, NC,, NC
CH5-2,2017-02-07T04:00:00Z,-79.54,54.26,0.80,19.14,,-0.96,,, NC,, NC
CH5-2,2017-02-07T04:10:00Z,-79.54,54.26,0.80,19.01,,-0.96,,, NC,, NC
CH5-2,2017-02-07T04:20:00Z,-79.54,54.26,0.80,19.02,,-0.96,,, NC,, NC
CH5-2,2017-02-07T04:30:00Z,-79.54,54.26,0.80,19.03,,-0.96,,, NC,, NC
CH5-2,2017-02-07T04:40:00Z,-79.54,54.26,0.80,19.10,,-0.96,,, NC,, NC
CH5-2,2017-02-07T04:50:00Z,-79.54,54.26,0.80,19.13,,-0.96,,, NC,, NC
CH5-2,2017-02-07T05:00:00Z,-79.54,54.26,0.80,19.15,,-0.96,,, NC,, NC
CH5-2,2017-02-07T05:10:00Z,-79.54,54.26,0.80,19.28,,-0.96,,, NC,, NC
CH5-2,2017-02-07T05:20:00Z,-79.54,54.26,0.80,19.60,,-0.97,,, NC,, NC
CH5-2,2017-02-07T05:30:00Z,-79.54,54.26,0.80,19.68,,-0.97,,, NC,, NC
CH5-2,2017-02-07T05:40:00Z,-79.54,54.26,0.80,19.79,,-0.97,,, NC,, NC
CH5-2,2017-02-07T05:50:00Z,-79.54,54.26,0.80,19.76,,-0.97,,, NC,, NC
CH5-2,2017-02-07T06:00:00Z,-79.54,54.26,0.80,19.64,,-0.97,,, NC,, NC
CH5-2,2017-02-07T06:10:00Z,-79.54,54.26,0.80,19.53,,-0.97,,, NC,, NC
CH5-2,2017-02-07T06:20:00Z,-79.54,54.26,0.80,19.62,,-0.97,,, NC,, NC
CH5-2,2017-02-07T06:30:00Z,-79.54,54.26,0.80,19.48,,-0.97,,, NC,, NC
CH5-2,2017-02-07T06:40:00Z,-79.54,54.26,0.80,19.26,,-0.97,,, NC,, NC
CH5-2,2017-02-07T06:50:00Z,-79.54,54.26,0.80,19.71,,-0.98,,, NC,, NC
CH5-2,2017-02-07T07:00:00Z,-79.54,54.26,0.80,19.58,,-0.98,,, NC,, NC
CH5-2,2017-02-07T07:10:00Z,-79.54,54.26,0.80,19.47,,-0.98,,, NC,, NC
CH5-2,2017-02-07T07:20:00Z,-79.54,54.26,0.80,19.57,,-0.98,,, NC,, NC
CH5-2,2017-02-07T07:30:00Z,-79.54,54.26,0.80,19.39,,-0.98,,, NC,, NC
CH5-2,2017-02-07T07:40:00Z,-79.54,54.26,0.80,19.51,,-0.98,,, NC,, NC
CH5-2,2017-02-07T07:50:00Z,-79.54,54.26,0.80,19.83,,-0.98,,, NC,, NC
CH5-2,2017-02-07T08:00:00Z,-79.54,54.26,0.80,19.88,,-0.99,,, NC,, NC
CH5-2,2017-02-07T08:10:00Z,-79.54,54.26,0.80,19.80,,-0.98,,, NC,, NC
CH5-2,2017-02-07T08:20:00Z,-79.54,54.26,0.80,19.77,,-0.99,,, NC,, NC
CH5-2,2017-02-07T08:30:00Z,-79.54,54.26,0.80,19.78,,-0.99,,, NC,, NC
CH5-2,2017-02-07T08:40:00Z,-79.54,54.26,0.80,19.74,,-0.99,,, NC,, NC
CH5-2,2017-02-07T08:50:00Z,-79.54,54.26,0.80,19.72,,-0.98,,, NC,, NC
CH5-2,2017-02-07T09:00:00Z,-79.54,54.26,0.80,19.50,,-0.99,,, NC,, NC
CH5-2,2017-02-07T09:10:00Z,-79.54,54.26,0.80,19.49,,-0.99,,, NC,, NC
CH5-2,2017-02-07T09:20:00Z,-79.54,54.26,0.80,19.71,,-0.99,,, NC,, NC
CH5-2,2017-02-07T09:30:00Z,-79.54,54.26,0.80,19.80,,-0.99,,, NC,, NC
CH5-2,2017-02-07T09:40:00Z,-79.54,54.26,0.80,19.83,,-0.99,,, NC,, NC
CH5-2,2017-02-07T09:50:00Z,-79.54,54.26,0.80,19.56,,-0.99,,, NC,, NC
CH5-2,2017-02-07T10:00:00Z,-79.54,54.26,0.80,19.55,,-0.98,,, NC,, NC
CH5-2,2017-02-07T10:10:00Z,-79.54,54.26,0.80,19.67,,-0.98,,, NC,, NC
CH5-2,2017-02-07T10:20:00Z,-79.54,54.26,0.80,19.63,,-0.98,,, NC,, NC
CH5-2,2017-02-07T10:30:00Z,-79.54,54.26,0.80,19.69,,-0.98,,, NC,, NC
CH5-2,2017-02-07T10:40:00Z,-79.54,54.26,0.80,19.68,,-0.98,,, NC,, NC
CH5-2,2017-02-07T10:50:00Z,-79.54,54.26,0.80,19.71,,-0.98,,, NC,, NC
CH5-2,2017-02-07T11:00:00Z,-79.54,54.26,0.80,19.65,,-0.98,,, NC,, NC
CH5-2,2017-02-07T11:10:00Z,-79.54,54.26,0.80,19.62,,-0.98,,, NC,, NC
CH5-2,2017-02-07T11:20:00Z,-79.54,54.26,0.80,19.48,,-0.98,,, NC,, NC
CH5-2,2017-02-07T11:30:00Z,-79.54,54.26,0.80,19.43,,-0.98,,, NC,, NC
CH5-2,2017-02-07T11:40:00Z,-79.54,54.26,0.80,19.42,,-0.97,,, NC,, NC
CH5-2,2017-02-07T11:50:00Z,-79.54,54.26,0.80,19.39,,-0.97,,, NC,, NC
CH5-2,2017-02-07T12:00:00Z,-79.54,54.26,0.80,19.37,,-0.98,,, NC,, NC
CH5-2,2017-02-07T12:10:00Z,-79.54,54.26,0.80,19.32,,-0.98,,, NC,, NC
CH5-2,2017-02-07T12:20:00Z,-79.54,54.26,0.80,19.30,,-0.97,,, NC,, NC
CH5-2,2017-02-07T12:30:00Z,-79.54,54.26,0.80,19.27,,-0.97,,, NC,, NC
CH5-2,2017-02-07T12:40:00Z,-79.54,54.26,0.80,19.22,,-0.97,,, NC,, NC
CH5-2,2017-02-07T12:50:00Z,-79.54,54.26,0.80,19.13,,-0.97,,, NC,, NC
CH5-2,2017-02-07T13:00:00Z,-79.54,54.26,0.80,19.10,,-0.97,,, NC,, NC
CH5-2,2017-02-07T13:10:00Z,-79.54,54.26,0.80,19.08,,-0.96,,, NC,, NC
CH5-2,2017-02-07T13:20:00Z,-79.54,54.26,0.80,19.01,,-0.96,,, NC,, NC
CH5-2,2017-02-07T13:30:00Z,-79.54,54.26,0.80,18.94,,-0.96,,, NC,, NC
CH5-2,2017-02-07T13:40:00Z,-79.54,54.26,0.80,18.97,,-0.96,,, NC,, NC
CH5-2,2017-02-07T13:50:00Z,-79.54,54.26,0.80,19.06,,-0.96,,, NC,, NC
CH5-2,2017-02-07T14:00:00Z,-79.54,54.26,0.80,19.02,,-0.96,,, NC,, NC
CH5-2,2017-02-07T14:10:00Z,-79.54,54.26,0.80,19.03,,-0.96,,, NC,, NC
CH5-2,2017-02-07T14:20:00Z,-79.54,54.26,0.80,19.13,,-0.96,,, NC,, NC
CH5-2,2017-02-07T14:30:00Z,-79.54,54.26,0.80,19.12,,-0.96,,, NC,, NC
CH5-2,2017-02-07T14:40:00Z,-79.54,54.26,0.80,19.16,,-0.96,,, NC,, NC
CH5-2,2017-02-07T14:50:00Z,-79.54,54.26,0.80,19.25,,-0.96,,, NC,, NC
CH5-2,2017-02-07T15:00:00Z,-79.54,54.26,0.80,19.24,,-0.96,,, NC,, NC
CH5-2,2017-02-07T15:10:00Z,-79.54,54.26,0.80,19.13,,-0.96,,, NC,, NC
CH5-2,2017-02-07T15:20:00Z,-79.54,54.26,0.80,19.11,,-0.96,,, NC,, NC
CH5-2,2017-02-07T15:30:00Z,-79.54,54.26,0.80,18.96,,-0.96,,, NC,, NC
CH5-2,2017-02-07T15:40:00Z,-79.54,54.26,0.80,18.93,,-0.95,,, NC,, NC
CH5-2,2017-02-07T15:50:00Z,-79.54,54.26,0.80,18.88,,-0.95,,, NC,, NC
CH5-2,2017-02-07T16:00:00Z,-79.54,54.26,0.80,18.77,,-0.95,,, NC,, NC
CH5-2,2017-02-07T16:10:00Z,-79.54,54.26,0.80,18.74,,-0.95,,, NC,, NC
CH5-2,2017-02-07T16:20:00Z,-79.54,54.26,0.80,18.81,,-0.95,,, NC,, NC
CH5-2,2017-02-07T16:30:00Z,-79.54,54.26,0.80,18.83,,-0.95,,, NC,, NC
CH5-2,2017-02-07T16:40:00Z,-79.54,54.26,0.80,18.81,,-0.95,,, NC,, NC
CH5-2,2017-02-07T16:50:00Z,-79.54,54.26,0.80,18.80,,-0.95,,, NC,, NC
CH5-2,2017-02-07T17:00:00Z,-79.54,54.26,0.80,18.80,,-0.95,,, NC,, NC
CH5-2,2017-02-07T17:10:00Z,-79.54,54.26,0.80,18.79,,-0.95,,, NC,, NC
CH5-2,2017-02-07T17:20:00Z,-79.54,54.26,0.80,18.99,,-0.95,,, NC,, NC
CH5-2,2017-02-07T17:30:00Z,-79.54,54.26,0.80,18.76,,-0.95,,, NC,, NC
CH5-2,2017-02-07T17:40:00Z,-79.54,54.26,0.80,18.69,,-0.94,,, NC,, NC
CH5-2,2017-02-07T17:50:00Z,-79.54,54.26,0.80,18.71,,-0.94,,, NC,, NC
CH5-2,2017-02-07T18:00:00Z,-79.54,54.26,0.80,18.79,,-0.94,,, NC,, NC
CH5-2,2017-02-07T18:10:00Z,-79.54,54.26,0.80,18.90,,-0.94,,, NC,, NC
CH5-2,2017-02-07T18:20:00Z,-79.54,54.26,0.80,18.99,,-0.94,,, NC,, NC
CH5-2,2017-02-07T18:30:00Z,-79.54,54.26,0.80,18.97,,-0.94,,, NC,, NC
CH5-2,2017-02-07T18:40:00Z,-79.54,54.26,0.80,18.99,,-0.94,,, NC,, NC
CH5-2,2017-02-07T18:50:00Z,-79.54,54.26,0.80,19.14,,-0.95,,, NC,, NC
CH5-2,2017-02-07T19:00:00Z,-79.54,54.26,0.80,19.01,,-0.94,,, NC,, NC
CH5-2,2017-02-07T19:10:00Z,-79.54,54.26,0.80,18.97,,-0.95,,, NC,, NC
CH5-2,2017-02-07T19:20:00Z,-79.54,54.26,0.80,18.99,,-0.95,,, NC,, NC
CH5-2,2017-02-07T19:30:00Z,-79.54,54.26,0.80,18.97,,-0.95,,, NC,, NC
CH5-2,2017-02-07T19:40:00Z,-79.54,54.26,0.80,19.22,,-0.95,,, NC,, NC
CH5-2,2017-02-07T19:50:00Z,-79.54,54.26,0.80,19.62,,-0.96,,, NC,, NC
CH5-2,2017-02-07T20:00:00Z,-79.54,54.26,0.80,19.47,,-0.96,,, NC,, NC
CH5-2,2017-02-07T20:10:00Z,-79.54,54.26,0.80,19.12,,-0.95,,, NC,, NC
CH5-2,2017-02-07T20:20:00Z,-79.54,54.26,0.80,19.09,,-0.95,,, NC,, NC
CH5-2,2017-02-07T20:30:00Z,-79.54,54.26,0.80,19.72,,-0.96,,, NC,, NC
CH5-2,2017-02-07T20:40:00Z,-79.54,54.26,0.80,19.18,,-0.96,,, NC,, NC
CH5-2,2017-02-07T20:50:00Z,-79.54,54.26,0.80,19.48,,-0.96,,, NC,, NC
CH5-2,2017-02-07T21:00:00Z,-79.54,54.26,0.80,19.22,,-0.96,,, NC,, NC
CH5-2,2017-02-07T21:10:00Z,-79.54,54.26,0.80,19.75,,-0.98,,, NC,, NC
CH5-2,2017-02-07T21:20:00Z,-79.54,54.26,0.80,19.63,,-0.98,,, NC,, NC
CH5-2,2017-02-07T21:30:00Z,-79.54,54.26,0.80,19.66,,-0.98,,, NC,, NC
CH5-2,2017-02-07T21:40:00Z,-79.54,54.26,0.80,19.65,,-0.97,,, NC,, NC
CH5-2,2017-02-07T21:50:00Z,-79.54,54.26,0.80,19.60,,-0.97,,, NC,, NC
CH5-2,2017-02-07T22:00:00Z,-79.54,54.26,0.80,19.42,,-0.97,,, NC,, NC
CH5-2,2017-02-07T22:10:00Z,-79.54,54.26,0.80,19.22,,-0.97,,, NC,, NC
CH5-2,2017-02-07T22:20:00Z,-79.54,54.26,0.80,19.34,,-0.97,,, NC,, NC
CH5-2,2017-02-07T22:30:00Z,-79.54,54.26,0.80,19.29,,-0.97,,, NC,, NC
CH5-2,2017-02-07T22:40:00Z,-79.54,54.26,0.80,19.32,,-0.97,,, NC,, NC
CH5-2,2017-02-07T22:50:00Z,-79.54,54.26,0.80,19.13,,-0.96,,, NC,, NC
CH5-2,2017-02-07T23:00:00Z,-79.54,54.26,0.80,19.22,,-0.96,,, NC,, NC
CH5-2,2017-02-07T23:10:00Z,-79.54,54.26,0.80,19.25,,-0.96,,, NC,, NC
CH5-2,2017-02-07T23:20:00Z,-79.54,54.26,0.80,19.19,,-0.96,,, NC,, NC
CH5-2,2017-02-07T23:30:00Z,-79.54,54.26,0.80,19.21,,-0.96,,, NC,, NC
CH5-2,2017-02-07T23:40:00Z,-79.54,54.26,0.80,19.21,,-0.96,,, NC,, NC
CH5-2,2017-02-07T23:50:00Z,-79.54,54.26,0.80,19.28,,-0.96,,, NC,, NC
CH5-2,2017-02-08T00:00:00Z,-79.54,54.26,0.80,19.32,,-0.96,,, NC,, NC
CH5-2,2017-02-08T00:10:00Z,-79.54,54.26,0.80,19.37,,-0.97,,, NC,, NC
CH5-2,2017-02-08T00:20:00Z,-79.54,54.26,0.80,19.34,,-0.97,,, NC,, NC
CH5-2,2017-02-08T00:30:00Z,-79.54,54.26,0.80,19.35,,-0.97,,, NC,, NC
CH5-2,2017-02-08T00:40:00Z,-79.54,54.26,0.80,19.38,,-0.97,,, NC,, NC
CH5-2,2017-02-08T00:50:00Z,-79.54,54.26,0.80,19.30,,-0.97,,, NC,, NC
CH5-2,2017-02-08T01:00:00Z,-79.54,54.26,0.80,19.23,,-0.97,,, NC,, NC
CH5-2,2017-02-08T01:10:00Z,-79.54,54.26,0.80,19.27,,-0.97,,, NC,, NC
CH5-2,2017-02-08T01:20:00Z,-79.54,54.26,0.80,19.12,,-0.96,,, NC,, NC
CH5-2,2017-02-08T01:30:00Z,-79.54,54.26,0.80,19.06,,-0.96,,, NC,, NC
CH5-2,2017-02-08T01:40:00Z,-79.54,54.26,0.80,19.05,,-0.96,,, NC,, NC
CH5-2,2017-02-08T01:50:00Z,-79.54,54.26,0.80,19.04,,-0.96,,, NC,, NC
CH5-2,2017-02-08T02:00:00Z,-79.54,54.26,0.80,19.03,,-0.96,,, NC,, NC
CH5-2,2017-02-08T02:10:00Z,-79.54,54.26,0.80,19.04,,-0.96,,, NC,, NC
CH5-2,2017-02-08T02:20:00Z,-79.54,54.26,0.80,19.04,,-0.96,,, NC,, NC
CH5-2,2017-02-08T02:30:00Z,-79.54,54.26,0.80,19.05,,-0.96,,, NC,, NC
CH5-2,2017-02-08T02:40:00Z,-79.54,54.26,0.80,19.18,,-0.96,,, NC,, NC
CH5-2,2017-02-08T02:50:00Z,-79.54,54.26,0.80,19.06,,-0.96,,, NC,, NC
CH5-2,2017-02-08T03:00:00Z,-79.54,54.26,0.80,19.02,,-0.96,,, NC,, NC
CH5-2,2017-02-08T03:10:00Z,-79.54,54.26,0.80,18.98,,-0.96,,, NC,, NC
CH5-2,2017-02-08T03:20:00Z,-79.54,54.26,0.80,19.02,,-0.95,,, NC,, NC
CH5-2,2017-02-08T03:30:00Z,-79.54,54.26,0.80,19.06,,-0.95,,, NC,, NC
CH5-2,2017-02-08T03:40:00Z,-79.54,54.26,0.80,19.04,,-0.95,,, NC,, NC
CH5-2,2017-02-08T03:50:00Z,-79.54,54.26,0.80,19.02,,-0.95,,, NC,, NC
CH5-2,2017-02-08T04:00:00Z,-79.54,54.26,0.80,19.11,,-0.95,,, NC,, NC
CH5-2,2017-02-08T04:10:00Z,-79.54,54.26,0.80,19.01,,-0.95,,, NC,, NC
CH5-2,2017-02-08T04:20:00Z,-79.54,54.26,0.80,18.98,,-0.95,,, NC,, NC
CH5-2,2017-02-08T04:30:00Z,-79.54,54.26,0.80,18.98,,-0.95,,, NC,, NC
CH5-2,2017-02-08T04:40:00Z,-79.54,54.26,0.80,18.86,,-0.96,,, NC,, NC
CH5-2,2017-02-08T04:50:00Z,-79.54,54.26,0.80,18.84,,-0.96,,, NC,, NC
CH5-2,2017-02-08T05:00:00Z,-79.54,54.26,0.80,18.84,,-0.95,,, NC,, NC
CH5-2,2017-02-08T05:10:00Z,-79.54,54.26,0.80,18.84,,-0.95,,, NC,, NC
CH5-2,2017-02-08T05:20:00Z,-79.54,54.26,0.80,18.80,,-0.95,,, NC,, NC
CH5-2,2017-02-08T05:30:00Z,-79.54,54.26,0.80,18.87,,-0.95,,, NC,, NC
CH5-2,2017-02-08T05:40:00Z,-79.54,54.26,0.80,18.87,,-0.95,,, NC,, NC
CH5-2,2017-02-08T05:50:00Z,-79.54,54.26,0.80,19.00,,-0.95,,, NC,, NC
CH5-2,2017-02-08T06:00:00Z,-79.54,54.26,0.80,19.03,,-0.95,,, NC,, NC
CH5-2,2017-02-08T06:10:00Z,-79.54,54.26,0.80,18.85,,-0.95,,, NC,, NC
CH5-2,2017-02-08T06:20:00Z,-79.54,54.26,0.80,19.03,,-0.95,,, NC,, NC
CH5-2,2017-02-08T06:30:00Z,-79.54,54.26,0.80,19.08,,-0.95,,, NC,, NC
CH5-2,2017-02-08T06:40:00Z,-79.54,54.26,0.80,19.10,,-0.96,,, NC,, NC
CH5-2,2017-02-08T06:50:00Z,-79.54,54.26,0.80,19.20,,-0.95,,, NC,, NC
CH5-2,2017-02-08T07:00:00Z,-79.54,54.26,0.80,19.02,,-0.96,,, NC,, NC
CH5-2,2017-02-08T07:10:00Z,-79.54,54.26,0.80,19.25,,-0.96,,, NC,, NC
CH5-2,2017-02-08T07:20:00Z,-79.54,54.26,0.80,19.16,,-0.96,,, NC,, NC
CH5-2,2017-02-08T07:30:00Z,-79.54,54.26,0.80,19.19,,-0.96,,, NC,, NC
CH5-2,2017-02-08T07:40:00Z,-79.54,54.26,0.80,19.41,,-0.96,,, NC,, NC
CH5-2,2017-02-08T07:50:00Z,-79.54,54.26,0.80,19.46,,-0.96,,, NC,, NC
CH5-2,2017-02-08T08:00:00Z,-79.54,54.26,0.80,19.48,,-0.96,,, NC,, NC
CH5-2,2017-02-08T08:10:00Z,-79.54,54.26,0.80,19.30,,-0.96,,, NC,, NC
CH5-2,2017-02-08T08:20:00Z,-79.54,54.26,0.80,19.29,,-0.96,,, NC,, NC
CH5-2,2017-02-08T08:30:00Z,-79.54,54.26,0.80,19.48,,-0.97,,, NC,, NC
CH5-2,2017-02-08T08:40:00Z,-79.54,54.26,0.80,19.64,,-0.97,,, NC,, NC
CH5-2,2017-02-08T08:50:00Z,-79.54,54.26,0.80,19.54,,-0.96,,, NC,, NC
CH5-2,2017-02-08T09:00:00Z,-79.54,54.26,0.80,19.51,,-0.96,,, NC,, NC
CH5-2,2017-02-08T09:10:00Z,-79.54,54.26,0.80,19.42,,-0.96,,, NC,, NC
CH5-2,2017-02-08T09:20:00Z,-79.54,54.26,0.80,19.34,,-0.97,,, NC,, NC
CH5-2,2017-02-08T09:30:00Z,-79.54,54.26,0.80,19.34,,-0.97,,, NC,, NC
CH5-2,2017-02-08T09:40:00Z,-79.54,54.26,0.80,19.31,,-0.97,,, NC,, NC
CH5-2,2017-02-08T09:50:00Z,-79.54,54.26,0.80,19.21,,-0.96,,, NC,, NC
CH5-2,2017-02-08T10:00:00Z,-79.54,54.26,0.80,19.03,,-0.96,,, NC,, NC
CH5-2,2017-02-08T10:10:00Z,-79.54,54.26,0.80,19.05,,-0.96,,, NC,, NC
CH5-2,2017-02-08T10:20:00Z,-79.54,54.26,0.80,19.17,,-0.96,,, NC,, NC
CH5-2,2017-02-08T10:30:00Z,-79.54,54.26,0.80,19.30,,-0.97,,, NC,, NC
CH5-2,2017-02-08T10:40:00Z,-79.54,54.26,0.80,19.36,,-0.97,,, NC,, NC
CH5-2,2017-02-08T10:50:00Z,-79.54,54.26,0.80,19.39,,-0.97,,, NC,, NC
CH5-2,2017-02-08T11:00:00Z,-79.54,54.26,0.80,19.38,,-0.97,,, NC,, NC
CH5-2,2017-02-08T11:10:00Z,-79.54,54.26,0.80,19.09,,-0.97,,, NC,, NC
CH5-2,2017-02-08T11:20:00Z,-79.54,54.26,0.80,18.98,,-0.96,,, NC,, NC
CH5-2,2017-02-08T11:30:00Z,-79.54,54.26,0.80,19.14,,-0.97,,, NC,, NC
CH5-2,2017-02-08T11:40:00Z,-79.54,54.26,0.80,19.30,,-0.97,,, NC,, NC
CH5-2,2017-02-08T11:50:00Z,-79.54,54.26,0.80,19.35,,-0.97,,, NC,, NC
CH5-2,2017-02-08T12:00:00Z,-79.54,54.26,0.80,19.31,,-0.97,,, NC,, NC
CH5-2,2017-02-08T12:10:00Z,-79.54,54.26,0.80,19.27,,-0.97,,, NC,, NC
CH5-2,2017-02-08T12:20:00Z,-79.54,54.26,0.80,19.30,,-0.97,,, NC,, NC
CH5-2,2017-02-08T12:30:00Z,-79.54,54.26,0.80,19.22,,-0.96,,, NC,, NC
CH5-2,2017-02-08T12:40:00Z,-79.54,54.26,0.80,19.12,,-0.96,,, NC,, NC
CH5-2,2017-02-08T12:50:00Z,-79.54,54.26,0.80,19.03,,-0.96,,, NC,, NC
CH5-2,2017-02-08T13:00:00Z,-79.54,54.26,0.80,18.97,,-0.96,,, NC,, NC
CH5-2,2017-02-08T13:10:00Z,-79.54,54.26,0.80,18.98,,-0.96,,, NC,, NC
CH5-2,2017-02-08T13:20:00Z,-79.54,54.26,0.80,18.92,,-0.95,,, NC,, NC
CH5-2,2017-02-08T13:30:00Z,-79.54,54.26,0.80,18.92,,-0.95,,, NC,, NC
CH5-2,2017-02-08T13:40:00Z,-79.54,54.26,0.80,18.91,,-0.95,,, NC,, NC
CH5-2,2017-02-08T13:50:00Z,-79.54,54.26,0.80,18.94,,-0.95,,, NC,, NC
CH5-2,2017-02-08T14:00:00Z,-79.54,54.26,0.80,18.81,,-0.95,,, NC,, NC
CH5-2,2017-02-08T14:10:00Z,-79.54,54.26,0.80,18.68,,-0.94,,, NC,, NC
CH5-2,2017-02-08T14:20:00Z,-79.54,54.26,0.80,18.65,,-0.94,,, NC,, NC
CH5-2,2017-02-08T14:30:00Z,-79.54,54.26,0.80,18.66,,-0.94,,, NC,, NC
CH5-2,2017-02-08T14:40:00Z,-79.54,54.26,0.80,18.72,,-0.95,,, NC,, NC
CH5-2,2017-02-08T14:50:00Z,-79.54,54.26,0.80,18.71,,-0.94,,, NC,, NC
CH5-2,2017-02-08T15:00:00Z,-79.54,54.26,0.80,18.75,,-0.94,,, NC,, NC
CH5-2,2017-02-08T15:10:00Z,-79.54,54.26,0.80,18.74,,-0.94,,, NC,, NC
CH5-2,2017-02-08T15:20:00Z,-79.54,54.26,0.80,18.73,,-0.94,,, NC,, NC
CH5-2,2017-02-08T15:30:00Z,-79.54,54.26,0.80,18.82,,-0.94,,, NC,, NC
CH5-2,2017-02-08T15:40:00Z,-79.54,54.26,0.80,18.87,,-0.94,,, NC,, NC
CH5-2,2017-02-08T15:50:00Z,-79.54,54.26,0.80,18.82,,-0.94,,, NC,, NC
CH5-2,2017-02-08T16:00:00Z,-79.54,54.26,0.80,18.70,,-0.94,,, NC,, NC
CH5-2,2017-02-08T16:10:00Z,-79.54,54.26,0.80,18.73,,-0.94,,, NC,, NC
CH5-2,2017-02-08T16:20:00Z,-79.54,54.26,0.80,18.73,,-0.94,,, NC,, NC
CH5-2,2017-02-08T16:30:00Z,-79.54,54.26,0.80,18.73,,-0.94,,, NC,, NC
CH5-2,2017-02-08T16:40:00Z,-79.54,54.26,0.80,18.62,,-0.93,,, NC,, NC
CH5-2,2017-02-08T16:50:00Z,-79.54,54.26,0.80,18.84,,-0.94,,, NC,, NC
CH5-2,2017-02-08T17:00:00Z,-79.54,54.26,0.80,18.45,,-0.93,,, NC,, NC
CH5-2,2017-02-08T17:10:00Z,-79.54,54.26,0.80,18.38,,-0.93,,, NC,, NC
CH5-2,2017-02-08T17:20:00Z,-79.54,54.26,0.80,18.35,,-0.93,,, NC,, NC
CH5-2,2017-02-08T17:30:00Z,-79.54,54.26,0.80,18.33,,-0.93,,, NC,, NC
CH5-2,2017-02-08T17:40:00Z,-79.54,54.26,0.80,18.32,,-0.93,,, NC,, NC
CH5-2,2017-02-08T17:50:00Z,-79.54,54.26,0.80,18.33,,-0.93,,, NC,, NC
CH5-2,2017-02-08T18:00:00Z,-79.54,54.26,0.80,18.35,,-0.93,,, NC,, NC
CH5-2,2017-02-08T18:10:00Z,-79.54,54.26,0.80,18.45,,-0.93,,, NC,, NC
CH5-2,2017-02-08T18:20:00Z,-79.54,54.26,0.80,18.42,,-0.93,,, NC,, NC
CH5-2,2017-02-08T18:30:00Z,-79.54,54.26,0.80,18.48,,-0.94,,, NC,, NC
CH5-2,2017-02-08T18:40:00Z,-79.54,54.26,0.80,18.37,,-0.93,,, NC,, NC
CH5-2,2017-02-08T18:50:00Z,-79.54,54.26,0.80,18.32,,-0.93,,, NC,, NC
CH5-2,2017-02-08T19:00:00Z,-79.54,54.26,0.80,18.39,,-0.93,,, NC,, NC
CH5-2,2017-02-08T19:10:00Z,-79.54,54.26,0.80,18.35,,-0.93,,, NC,, NC
CH5-2,2017-02-08T19:20:00Z,-79.54,54.26,0.80,18.35,,-0.93,,, NC,, NC
CH5-2,2017-02-08T19:30:00Z,-79.54,54.26,0.80,18.40,,-0.93,,, NC,, NC
CH5-2,2017-02-08T19:40:00Z,-79.54,54.26,0.80,18.42,,-0.93,,, NC,, NC
CH5-2,2017-02-08T19:50:00Z,-79.54,54.26,0.80,18.46,,-0.93,,, NC,, NC
CH5-2,2017-02-08T20:00:00Z,-79.54,54.26,0.80,18.47,,-0.93,,, NC,, NC
CH5-2,2017-02-08T20:10:00Z,-79.54,54.26,0.80,18.47,,-0.93,,, NC,, NC
CH5-2,2017-02-08T20:20:00Z,-79.54,54.26,0.80,18.49,,-0.93,,, NC,, NC
CH5-2,2017-02-08T20:30:00Z,-79.54,54.26,0.80,18.50,,-0.94,,, NC,, NC
CH5-2,2017-02-08T20:40:00Z,-79.54,54.26,0.80,18.51,,-0.94,,, NC,, NC
CH5-2,2017-02-08T20:50:00Z,-79.54,54.26,0.80,18.52,,-0.93,,, NC,, NC
CH5-2,2017-02-08T21:00:00Z,-79.54,54.26,0.80,18.52,,-0.93,,, NC,, NC
CH5-2,2017-02-08T21:10:00Z,-79.54,54.26,0.80,18.53,,-0.93,,, NC,, NC